Location: Lafig�re
(44.4503°N, 4.0357°E)
Time: 01:15:49
(UTC+00:00)

ARGOS - Pass Details

Date: 24 January 2021
Orbit: 821 x 834 km, 98.4° (Epoch: 03 March)

Event Time Altitude Azimuth Distance (km) Brightness Sun altitude
Rises 06:30:30 0° 28° (NNE) 3,384 6.5 -7.4°
Reaches altitude 10° 06:33:35 10° 46° (NE) 2,447 6.0 -6.9°
Maximum altitude 06:37:22 19° 91° (E) 1,884 6.2 -6.2°
Drops below altitude 10° 06:41:09 10° 135° (SE) 2,438 6.9 -5.6°
Sets 06:44:11 0° 153° (SSE) 3,367 7.2 -5.1°
